Погода в Воронцовке

Россия / Тамбовская область     52°27′04″N   41°24′41″E
темп.,
°C
ветер,
м/с
пор.,
м/с
влажн.,
%
обл.,
%
осадки,
мм/ч
давл.,
гПа
погр.,
м
15 апреля, чт
чт1500:00+11вюв375848 0.0 1017109
03:00+9вюв37668 0.0 1017102
06:00+9вюв377099 0.0 1017114
09:00+15юв584863 0.0 1016429
12:00+19юв563622 0.0 10151109
15:00+21ююв453054 0.0 10141895
18:00+18ююв3341100 0.0 101449
21:00+14з4864100 0.0 1015169
16 апреля, пт
пт1600:00+12ссз2275100 0.0 101535
03:00+11с2279100 0.0 101634
06:00+10зсз2281100 0.0 101628
09:00+14ссз2267100 0.0 1017401
12:00+17сз0153100 0.0 1017620
15:00+19вюв234393 0.0 10161339
18:00+16ююз4658100 0.3 1016227
21:00+12з248199 1.8 1018118
17 апреля, сб
сб1700:00+12св347693 0.7 101862
03:00+10всв228489 0.7 101836
06:00+10всв378178 0.1 1018162
09:00+14в4663100 0.3 1018589
12:00+18вюв61047100 0.1 10171760
15:00+11юз6780100 2.1 1019435
18:00+10юз3485100 4.6 1019347
21:00+9ююз1288100 5.2 1020193
18 апреля, вс
вс1800:00+8вюв2495100 3.4 1021277
03:00+8ююв0194100 5.6 102197
06:00+8всв51072100 0.0 1022493
09:00+8всв5964100 0.1 1023618
12:00+13всв684448 0.0 10231517
15:00+14св783620 0.0 10232039
18:00+12св610455 0.0 1023569
21:00+9св613535 0.0 1025407
19 апреля, пн
пн1900:00+7св496777 0.0 1026213
03:00+6св497421 0.0 1027227
06:00+5св4107511 0.0 1029379
09:00+8всв685616 0.0 1030878
12:00+11всв78393 0.0 10301499
15:00+11всв67312 0.0 10311681
18:00+10в58380 0.0 10311026
21:00+6всв511520 0.0 1031296